Regional Weather Roundup
Issued by NWS

Home | Current Version | Previous Version | Graphics & Text | Print | Product List | Glossary On
Versions: 1 2 3 4 5 6 7 8 9 10 11 12 13 14 15 16 17 18 19 20 21 22 23 24 25 26 27 28 29 30 31 32 33 34 35 36 37 38 39 40 41 42 43 44 45 46 47 48 49 50
308
ASUS43 KLSX 200507
RWRMO

WEATHER SUMMARY FOR MISSOURI
NATIONAL WEATHER SERVICE SPRINGFIELD MO
1200 AM CDT FRI OCT 20 2017

NOTE: "FAIR" INDICATES FEW OR NO CLOUDS BELOW 12,000 FEET WITH NO
       SIGNIFICANT WEATHER AND/OR OBSTRUCTIONS TO VISIBILITY.
       CURRENT SKY AND/OR WEATHER CONDITIONS ARE NOT AVAILABLE FOR
       CHILLICOTHE AND FARMINGTON.

MOZ001>031-035>038-043-044-053-054-200600-
...NORTHERN AND WESTERN MISSOURI...

CITY           SKY/WX    TMP DP  RH WIND       PRES   REMARKS
KANSAS CTY INT FAIR      57  51  80 S9        30.08S
KANSAS C DTWN  FAIR      61  53  75 SW7       30.08R
LEE`S SUMMIT   FAIR      61  54  77 S10       30.09S
ST JOSEPH      FAIR      62  55  77 S8        30.06S
CHILLICOTHE      N/A     56  53  90 CALM      30.10R
KIRKSVILLE     FAIR      58  52  80 S7        30.10F

$$
MOZ066>068-077>081-088>096-101>105-200600-
...SOUTHWEST MISSOURI...

CITY           SKY/WX    TMP DP  RH WIND       PRES   REMARKS
SPRINGFIELD    FAIR      61  49  64 S12       30.14S
JOPLIN         FAIR      59  53  80 S10       30.13S
BRANSON        FAIR      63  50  63 S8        30.17F

$$
MOZ032>034-039>042-045>050-055>058-069>072-200600-
...CENTRAL MISSOURI...

CITY           SKY/WX    TMP DP  RH WIND       PRES   REMARKS
COLUMBIA       FAIR      58  51  78 S6        30.13S
JEFFERSON CITY FAIR      53  50  89 SE3       30.13S
ROLLA          FAIR      63  48  58 S14       30.16S
SEDALIA        FAIR      57  53  86 S10       30.12S
WHITEMAN AFB   CLEAR     57  51  82 S5        30.07S
WARRENSBURG    FAIR      55  52  88 S5        30.10S
OSAGE BEACH    FAIR      59  50  72 S7        30.15S

$$
MOZ051-052-059>065-200600-
...EAST CENTRAL MISSOURI...

CITY           SKY/WX    TMP DP  RH WIND       PRES   REMARKS
ST LOUIS INTL  FAIR      64  50  60 S7        30.16S
SPIRIT OF STL  FOG       51  51 100 CALM      30.15R VSB 1
ST CHARLES     FAIR      53  53 100 NE3       30.15S

$$
MOZ072>076-082>087-097>100-106>115-200600-
...SOUTH CENTRAL AND SOUTHEAST MISSOURI...

CITY           SKY/WX    TMP DP  RH WIND       PRES   REMARKS
CAPE GIRARDEAU FAIR      52  48  86 NE3       30.20S
FARMINGTON     FAIR      58  50  75 CALM      30.19F
POPLAR BLUFF   FAIR      50  48  93 CALM      30.19S
WEST PLAINS    FAIR      60  50  69 S3        30.21S

$$



USA.gov is the U.S. government's official web portal to all federal, state and local government web resources and services.